Temp
-24 -24 -24 -24 -25 -25 -25 -26 -27 -30 -30 -30 -29 -29 -28 -27 -26 -25 -24 -24 -23 -22 -22 -22 -22 -21 -21 -20 -20 -20 -19 -19 -19 -19 -18 -18 -18 -18 -18 -17 -17 -18 -17 -16
-24 -24 -24 -25 -25 -25 -25 -26 -29 -31 -31 -30 -30 -29 -28 -27 -26 -25 -25 -24 -23 -22 -22 -22 -22 -22 -21 -21 -21 -21 -20 -20 -19 -19 -19 -19 -18 -18 -18 -20 -18 -18 -18 -17
-24 -24 -25 -25 -25 -25 -25 -27 -29 -31 -30 -31 -30 -28 -28 -27 -27 -25 -25 -25 -23 -22 -22 -22 -22 -21 -21 -21 -21 -21 -21 -20 -20 -20 -19 -19 -18 -18 -19 -19 -19 -18 -18 -17
-24 -25 -25 -25 -25 -26 -26 -27 -29 -30 -30 -30 -29 -28 -28 -27 -27 -25 -25 -25 -25 -23 -22 -22 -22 -22 -22 -23 -22 -22 -22 -21 -21 -20 -19 -19 -19 -19 -19 -19 -19 -18 -18 -18
-25 -25 -25 -25 -26 -26 -26 -27 -28 -28 -29 -29 -29 -28 -28 -28 -27 -27 -26 -25 -25 -23 -23 -23 -23 -22 -23 -22 -22 -22 -22 -21 -21 -21 -20 -19 -19 -19 -19 -19 -19 -18 -18 -18
-25 -25 -25 -26 -26 -26 -26 -27 -27 -28 -28 -28 -28 -28 -27 -28 -27 -27 -26 -26 -25 -25 -25 -24 -23 -23 -23 -23 -23 -22 -22 -22 -21 -21 -20 -19 -19 -19 -19 -19 -19 -19 -18 -18
-25 -25 -25 -26 -26 -26 -26 -27 -27 -28 -28 -28 -28 -28 -28 -28 -28 -27 -27 -26 -25 -25 -25 -25 -24 -24 -23 -23 -23 -22 -22 -21 -21 -20 -20 -19 -20 -19 -19 -19 -19 -19 -19 -18
-25 -25 -25 -26 -26 -27 -26 -27 -27 -28 -28 -28 -28 -28 -27 -27 -27 -27 -26 -26 -25 -25 -25 -25 -25 -24 -24 -24 -23 -23 -22 -22 -21 -20 -20 -19 -20 -19 -19 -19 -19 -19 -19 -19
-25 -25 -26 -26 -27 -27 -26 -27 -27 -28 -28 -29 -28 -28 -27 -27 -27 -27 -26 -26 -25 -25 -25 -25 -24 -24 -24 -24 -24 -23 -23 -22 -21 -20 -20 -19 -20 -20 -19 -19 -19 -19 -19 -18
-25 -25 -26 -26 -27 -27 -27 -27 -27 -28 -28 -28 -28 -28 -28 -27 -27 -27 -27 -26 -26 -26 -25 -25 -25 -25 -25 -25 -25 -24 -23 -23 -22 -21 -20 -20 -20 -20 -19 -19 -19 -19 -19 -19
-26 -26 -26 -27 -27 -27 -27 -27 -27 -28 -28 -28 -28 -28 -28 -27 -27 -27 -26 -26 -26 -26 -26 -26 -25 -25 -25 -25 -24 -24 -24 -23 -22 -21 -21 -20 -21 -20 -20 -20 -20 -19 -19 -19
-26 -26 -26 -27 -27 -27 -27 -27 -27 -28 -28 -28 -28 -28 -28 -27 -27 -27 -27 -26 -26 -26 -26 -26 -25 -25 -25 -25 -24 -24 -24 -23 -23 -23 -22 -22 -22 -21 -20 -20 -20 -20 -20 -20
-26 -26 -27 -27 -27 -27 -27 -27 -27 -28 -28 -28 -28 -27 -27 -27 -27 -27 -27 -27 -27 -26 -26 -26 -26 -25 -25 -25 -25 -24 -24 -24 -24 -23 -23 -22 -23 -22 -22 -21 -21 -21 -20 -20
-26 -26 -27 -27 -27 -27 -27 -27 -27 -27 -28 -28 -28 -28 -28 -27 -27 -27 -27 -27 -27 -27 -27 -27 -26 -26 -26 -25 -25 -25 -25 -24 -24 -24 -23 -23 -23 -23 -23 -23 -23 -22 -21 -21
-26 -27 -27 -27 -27 -28 -28 -28 -28 -27 -28 -28 -28 -28 -28 -28 -27 -27 -27 -27 -27 -27 -27 -27 -26 -26 -26 -26 -25 -25 -25 -24 -24 -24 -24 -23 -23 -23 -23 -24 -23 -23 -23 -22
-27 -27 -27 -28 -28 -28 -28 -28 -28 -28 -28 -28 -28 -28 -28 -28 -28 -27 -27 -27 -27 -27 -27 -27 -27 -26 -26 -26 -26 -25 -25 -25 -24 -24 -24 -23 -23 -23 -23 -23 -23 -23 -23 -23
-27 -27 -28 -28 -28 -28 -28 -28 -28 -28 -28 -27 -28 -28 -28 -28 -28 -28 -27 -27 -27 -27 -27 -27 -27 -27 -26 -26 -25 -25 -25 -25 -24 -24 -24 -24 -24 -24 -24 -23 -23 -23 -23 -23
-28 -28 -28 -28 -28 -28 -28 -28 -28 -28 -28 -28 -27 -27 -28 -28 -28 -28 -28 -27 -27 -27 -27 -28 -27 -27 -26 -26 -26 -26 -25 -25 -25 -25 -24 -24 -24 -24 -24 -24 -24 -23 -23 -23
-28 -28 -28 -28 -28 -28 -28 -29 -29 -28 -29 -28 -27 -28 -28 -28 -28 -28 -28 -27 -27 -27 -27 -27 -27 -27 -26 -26 -26 -26 -25 -25 -25 -25 -25 -24 -24 -24 -24 -24 -24 -24 -23 -23
-28 -28 -28 -28 -29 -29 -29 -29 -29 -29 -29 -28 -28 -28 -28 -28 -28 -28 -28 -28 -28 -27 -27 -27 -26 -26 -26 -26 -26 -26 -25 -25 -25 -25 -25 -24 -25 -24 -24 -24 -24 -24 -24 -24
-28 -29 -29 -29 -29 -29 -29 -29 -29 -29 -28 -28 -28 -28 -28 -28 -28 -28 -28 -28 -28 -27 -27 -27 -26 -26 -26 -26 -26 -26 -25 -25 -25 -25 -24 -24 -25 -25 -24 -24 -24 -24 -24 -24
-29 -29 -30 -29 -29 -29 -29 -29 -29 -29 -28 -28 -28 -28 -28 -28 -28 -28 -28 -28 -28 -27 -26 -26 -26 -26 -26 -26 -26 -26 -25 -24 -24 -25 -25 -25 -25 -25 -25 -25 -25 -25 -25 -24
-30 -30 -30 -29 -29 -29 -29 -29 -29 -28 -28 -28 -28 -28 -28 -28 -28 -28 -27 -27 -26 -26 -26 -26 -26 -26 -26 -26 -26 -26 -25 -25 -25 -25 -25 -25 -25 -25 -25 -25 -25 -25 -25 -25
-30 -30 -30 -29 -29 -29 -29 -29 -29 -28 -29 -28 -28 -28 -28 -28 -28 -27 -27 -26 -26 -26 -26 -26 -26 -25 -25 -25 -25 -25 -25 -25 -25 -25 -25 -26 -26 -26 -26 -26 -26 -26 -26 -26
-29 -29 -29 -29 -29 -29 -29 -29 -29 -29 -28 -28 -28 -28 -27 -27 -27 -27 -27 -26 -26 -26 -26 -26 -26 -26 -26 -26 -26 -26 -26 -26 -26 -26 -26 -26 -26 -26 -26 -26 -26 -26 -26 -26
-29 -29 -29 -29 -29 -29 -29 -28 -28 -28 -28 -27 -27 -27 -27 -27 -27 -27 -26 -26 -26 -26 -26 -26 -26 -25 -25 -25 -25 -25 -25 -26 -26 -26 -26 -27 -27 -27 -27 -27 -27 -27 -27 -27
-29 -29 -29 -29 -29 -28 -28 -28 -27 -27 -27 -27 -27 -27 -27 -27 -27 -27 -26 -26 -26 -26 -26 -26 -26 -26 -26 -26 -26 -26 -26 -26 -26 -27 -27 -27 -27 -27 -28 -28 -28 -28 -28 -29
Height
5545 5538 5531 5524 5516 5507 5497 5486 5477 5470 5470 5472 5474 5476 5482 5488 5493 5500 5506 5508 5517 5519 5528 5534 5539 5544 5551 5556 5561 5567 5573 5577 5581 5584 5588 5591 5593 5594 5595 5595 5596 5594 5594 5598
5538 5532 5525 5518 5510 5502 5493 5481 5472 5470 5469 5471 5471 5475 5480 5486 5491 5497 5504 5507 5516 5517 5526 5534 5538 5542 5547 5552 5557 5562 5567 5571 5576 5580 5584 5587 5588 5589 5590 5590 5588 5590 5589 5593
5531 5526 5519 5513 5506 5499 5490 5480 5472 5470 5470 5472 5473 5478 5483 5489 5492 5498 5503 5508 5516 5516 5525 5531 5538 5540 5543 5547 5553 5558 5563 5567 5572 5575 5578 5581 5583 5585 5585 5585 5585 5583 5584 5587
5525 5520 5514 5509 5502 5496 5490 5481 5475 5473 5473 5474 5476 5480 5485 5489 5494 5499 5502 5507 5510 5515 5523 5527 5534 5536 5540 5544 5549 5555 5559 5563 5568 5571 5573 5576 5579 5581 5580 5581 5582 5581 5582 5582
5519 5515 5509 5505 5500 5495 5489 5482 5478 5476 5477 5478 5480 5482 5485 5490 5496 5498 5502 5505 5510 5514 5520 5523 5530 5536 5539 5543 5548 5551 5555 5558 5562 5566 5568 5570 5574 5574 5576 5578 5578 5577 5578 5580
5513 5509 5505 5502 5497 5494 5489 5483 5481 5480 5481 5481 5484 5487 5489 5493 5498 5498 5501 5505 5508 5514 5518 5524 5529 5533 5537 5540 5543 5546 5550 5553 5556 5560 5562 5566 5570 5570 5571 5573 5574 5574 5574 5575
5507 5503 5500 5498 5494 5492 5489 5484 5482 5481 5482 5484 5485 5488 5491 5494 5497 5499 5504 5508 5511 5515 5519 5523 5527 5531 5535 5538 5540 5543 5547 5550 5553 5556 5559 5563 5563 5565 5567 5569 5570 5570 5570 5571
5500 5498 5496 5493 5491 5490 5488 5484 5482 5482 5483 5484 5486 5489 5492 5495 5498 5501 5504 5508 5511 5514 5518 5522 5525 5530 5534 5535 5537 5540 5543 5546 5549 5552 5555 5559 5560 5561 5564 5565 5567 5567 5567 5568
5493 5492 5490 5489 5488 5487 5486 5483 5482 5481 5483 5484 5486 5488 5492 5495 5498 5501 5504 5508 5510 5514 5517 5520 5524 5527 5531 5533 5535 5537 5540 5543 5547 5548 5551 5554 5556 5557 5558 5561 5564 5564 5566 5564
5487 5486 5485 5484 5484 5483 5484 5482 5481 5481 5480 5483 5485 5488 5490 5493 5496 5499 5503 5506 5509 5512 5514 5517 5521 5524 5527 5529 5533 5535 5537 5540 5543 5544 5546 5549 5550 5551 5552 5556 5562 5559 5561 5561
5480 5480 5479 5480 5480 5480 5481 5481 5480 5479 5480 5481 5483 5486 5489 5492 5494 5498 5501 5506 5508 5510 5512 5514 5516 5520 5523 5527 5529 5531 5534 5536 5537 5539 5540 5544 5543 5546 5546 5549 5551 5554 5556 5557
5472 5473 5474 5475 5476 5477 5478 5479 5479 5478 5478 5480 5481 5483 5485 5488 5491 5495 5498 5501 5503 5506 5509 5512 5514 5517 5519 5523 5526 5528 5532 5532 5534 5535 5536 5537 5537 5538 5538 5540 5543 5546 5551 5552
5465 5466 5468 5470 5471 5472 5475 5475 5476 5477 5477 5478 5478 5481 5484 5486 5488 5492 5495 5497 5499 5502 5505 5508 5510 5513 5516 5519 5522 5524 5526 5528 5529 5531 5531 5532 5532 5532 5532 5532 5535 5538 5542 5545
5457 5459 5461 5463 5466 5468 5470 5473 5473 5475 5476 5477 5479 5480 5481 5483 5485 5488 5490 5494 5496 5499 5502 5505 5507 5510 5512 5515 5518 5521 5522 5524 5526 5527 5527 5528 5529 5529 5528 5527 5529 5531 5533 5536
5449 5452 5454 5457 5460 5462 5465 5469 5470 5472 5475 5476 5477 5479 5481 5481 5482 5485 5487 5491 5494 5496 5499 5502 5505 5508 5510 5512 5515 5516 5517 5520 5523 5524 5523 5524 5526 5526 5526 5526 5527 5527 5529 5531
5441 5444 5448 5451 5454 5457 5460 5465 5468 5470 5472 5474 5475 5477 5479 5481 5482 5483 5484 5488 5491 5495 5497 5500 5503 5505 5508 5511 5512 5514 5515 5516 5519 5520 5520 5520 5520 5522 5522 5522 5523 5523 5524 5524
5433 5437 5441 5445 5448 5452 5456 5462 5466 5466 5469 5470 5471 5473 5477 5480 5481 5481 5482 5484 5487 5490 5494 5497 5501 5504 5505 5508 5510 5512 5512 5512 5514 5516 5517 5516 5516 5517 5518 5518 5519 5519 5518 5519
5426 5431 5435 5439 5442 5445 5450 5456 5460 5463 5465 5466 5468 5471 5474 5476 5477 5478 5478 5480 5481 5486 5490 5493 5497 5501 5503 5506 5507 5507 5508 5509 5511 5512 5513 5513 5513 5513 5513 5514 5514 5514 5513 5513
5419 5423 5427 5429 5432 5438 5445 5450 5453 5457 5461 5462 5467 5469 5471 5472 5474 5475 5475 5477 5480 5484 5488 5491 5495 5498 5501 5502 5503 5503 5505 5506 5507 5508 5509 5509 5509 5508 5508 5508 5507 5507 5507 5506
5410 5413 5415 5418 5426 5433 5439 5442 5446 5450 5453 5459 5462 5464 5467 5469 5470 5470 5472 5473 5477 5481 5486 5488 5492 5495 5498 5499 5500 5499 5499 5500 5502 5502 5503 5504 5503 5502 5501 5500 5500 5499 5498 5497
5399 5403 5409 5416 5421 5429 5433 5436 5440 5445 5451 5455 5459 5462 5464 5466 5467 5467 5468 5470 5474 5478 5484 5486 5489 5493 5494 5494 5494 5494 5494 5495 5495 5494 5493 5494 5494 5493 5491 5490 5489 5488 5486 5485
5393 5399 5408 5414 5417 5424 5427 5431 5437 5443 5448 5454 5458 5461 5464 5464 5466 5468 5469 5471 5474 5478 5482 5485 5488 5490 5488 5489 5489 5489 5489 5489 5488 5488 5487 5486 5484 5482 5480 5479 5477 5474 5472 5471
5391 5399 5405 5411 5415 5419 5423 5430 5437 5443 5448 5454 5457 5461 5463 5464 5466 5469 5470 5473 5475 5479 5482 5484 5486 5485 5485 5485 5485 5485 5484 5483 5483 5481 5479 5477 5475 5472 5469 5467 5465 5463 5460 5458
5395 5400 5405 5411 5415 5419 5427 5434 5438 5444 5448 5452 5456 5459 5461 5465 5467 5469 5472 5475 5477 5478 5479 5480 5479 5479 5479 5479 5479 5479 5478 5477 5476 5474 5472 5469 5467 5464 5461 5457 5453 5450 5447 5444
5399 5403 5409 5413 5419 5424 5429 5433 5439 5443 5447 5452 5456 5459 5463 5466 5468 5470 5473 5474 5474 5475 5476 5476 5476 5476 5476 5475 5475 5473 5472 5470 5467 5465 5462 5459 5455 5451 5447 5444 5440 5436 5432 5429
5402 5407 5412 5416 5421 5425 5429 5434 5438 5443 5448 5453 5457 5460 5464 5466 5468 5470 5471 5472 5473 5474 5474 5474 5474 5473 5472 5471 5469 5468 5466 5463 5460 5456 5452 5448 5443 5438 5433 5429 5424 5419 5414 5410
5406 5411 5415 5417 5421 5425 5429 5433 5439 5444 5449 5454 5457 5460 5463 5465 5466 5468 5470 5471 5472 5473 5473 5472 5471 5470 5468 5466 5464 5462 5459 5455 5451 5446 5441 5436 5431 5425 5419 5413 5408 5402 5397 5391
Wind_Speed
48 50 48 48 42 45 48 49 43 18 10 11 13 15 21 26 34 21 21 20 36 21 28 30 31 33 32 33 33 33 32 32 33 32 30 26 25 23 22 22 22 25 29 26
46 48 46 45 40 43 45 43 31 10 10 10 9 19 23 30 35 21 18 14 34 31 35 32 23 25 30 31 32 31 29 30 30 29 28 25 23 21 18 19 25 24 30 27
44 45 43 41 38 39 40 36 19 4 5 8 11 18 21 33 37 21 17 9 30 27 28 30 26 22 19 21 20 28 27 27 27 27 27 24 23 20 17 17 20 25 32 28
43 42 40 36 35 33 34 28 14 4 4 9 9 15 20 25 30 16 15 1 10 23 26 31 31 37 30 20 20 22 24 26 25 26 26 26 23 22 21 20 20 22 22 32
40 39 37 32 31 28 28 21 10 0 5 7 9 14 19 25 16 11 15 10 10 24 38 27 23 26 22 24 26 23 22 24 25 19 25 27 22 24 23 16 16 25 19 18
38 35 35 28 26 22 23 15 7 2 7 9 12 15 18 19 17 10 28 12 11 10 12 22 27 26 28 27 26 26 25 26 28 24 24 23 21 19 20 20 15 22 19 19
36 32 32 26 21 18 19 13 5 7 10 11 15 16 15 18 24 26 22 26 16 21 18 15 18 21 25 27 25 25 22 23 26 27 25 23 20 19 18 17 17 15 11 11
32 30 29 23 18 16 15 11 7 8 14 16 17 19 17 14 13 16 19 18 18 21 19 21 20 23 22 22 23 23 20 19 22 25 23 23 20 19 16 17 17 11 7 5
29 28 26 21 16 14 13 12 7 7 14 21 19 22 21 21 21 16 17 18 19 19 22 23 27 29 26 26 28 27 27 27 23 24 23 24 17 20 21 18 19 23 14 13
27 26 24 19 16 14 12 11 8 8 10 16 23 24 23 23 21 22 17 17 18 19 22 22 22 23 23 23 19 18 19 20 21 24 25 24 21 22 24 21 20 21 23 17
25 25 23 18 16 14 14 9 8 9 10 10 16 22 24 22 25 24 24 22 23 21 20 20 20 18 17 17 19 20 16 15 15 19 21 21 23 24 28 26 25 25 25 25
25 24 22 19 17 15 16 13 9 9 8 10 11 16 20 24 28 28 26 24 22 20 20 19 18 19 17 18 19 21 20 17 14 16 17 18 16 21 28 30 29 30 31 27
24 24 21 20 19 17 16 17 10 8 9 6 9 13 15 19 23 23 24 24 22 22 20 16 15 16 20 19 20 19 18 17 14 10 11 16 16 18 26 28 28 31 33 36
24 23 22 21 19 19 20 15 16 11 11 9 8 5 8 14 18 18 22 21 19 17 17 17 15 17 20 22 20 18 18 17 15 16 16 14 13 15 19 19 20 26 30 31
25 24 23 22 20 20 21 16 19 15 13 12 12 9 7 8 13 16 21 23 20 17 15 16 21 11 16 19 19 21 22 20 16 12 10 19 18 13 12 12 15 16 18 19
26 24 24 22 21 22 24 21 20 18 12 13 17 15 13 8 8 14 20 23 24 25 19 17 19 16 14 16 16 13 16 20 21 11 8 13 13 22 21 18 19 20 19 19
25 24 23 22 24 25 24 20 18 20 18 17 20 20 16 13 9 11 18 22 25 26 30 25 24 18 13 15 16 15 9 13 15 13 11 13 11 13 12 19 21 19 16 21
24 25 26 26 27 29 28 26 23 23 17 23 21 20 19 16 14 14 16 18 23 21 21 25 26 23 17 13 18 14 8 9 11 13 17 16 15 13 12 13 15 16 18 22
25 26 26 27 31 29 24 26 28 28 25 28 22 20 17 16 14 15 17 17 21 25 22 22 22 20 14 14 14 15 15 11 11 14 18 20 23 24 24 25 25 24 24 24
27 31 33 35 30 29 26 25 27 28 29 27 24 20 17 15 14 15 17 20 23 21 31 22 18 13 13 13 16 15 20 19 19 19 19 22 24 26 28 30 32 33 33 33
29 29 27 24 27 27 32 31 29 29 25 23 20 17 15 13 11 10 9 13 22 18 26 26 19 12 15 18 18 19 21 22 24 25 28 31 32 32 33 36 37 36 37 38
21 23 29 31 28 29 33 34 28 29 25 20 19 16 19 13 8 4 8 10 11 19 19 17 14 14 18 19 20 20 23 28 31 30 30 32 33 34 34 35 37 38 40 41
31 30 30 33 32 38 37 31 33 23 17 21 21 21 18 12 8 6 10 15 18 17 14 11 12 14 14 15 16 18 20 23 26 27 30 33 34 35 36 37 38 40 41 42
27 32 33 35 32 22 28 22 18 18 20 22 26 22 13 13 13 13 8 9 11 13 13 9 12 14 17 19 18 19 22 24 25 27 28 30 33 35 37 39 40 42 44 46
29 26 27 26 28 22 23 24 25 21 21 26 26 19 22 21 17 9 6 7 9 8 9 8 7 8 8 10 13 17 20 23 27 30 32 34 36 37 39 41 43 44 46 48
25 31 27 17 21 21 25 28 23 26 28 26 22 20 18 15 14 12 10 8 7 5 6 8 10 10 11 13 16 19 22 25 28 32 34 37 39 41 43 46 48 51 53 55
24 22 18 17 19 20 23 24 27 32 27 21 18 15 12 9 9 9 8 8 6 7 8 7 10 12 14 17 20 24 27 30 34 37 40 43 45 47 50 52 54 56 56 57
Wind_Direction
312 317 316 322 319 321 325 324 326 308 261 245 249 214 194 185 182 171 174 156 189 198 209 201 202 210 211 215 220 224 225 227 227 230 234 235 241 255 266 267 262 263 270 266
311 316 316 321 320 324 328 329 332 298 256 244 224 197 193 179 186 165 155 147 179 167 211 211 199 221 221 224 225 228 229 228 226 226 230 233 236 248 256 254 267 259 256 265
311 314 316 320 319 327 332 335 335 303 241 197 213 187 189 182 198 151 142 116 177 171 199 208 191 177 161 179 196 218 224 221 219 227 233 235 237 244 247 256 269 270 255 247
309 312 315 318 318 329 335 342 344 319 209 196 200 185 186 189 208 154 143 100 190 177 168 191 206 228 236 241 233 231 227 226 224 228 233 237 242 246 245 252 275 286 275 253
307 310 314 315 316 329 336 345 348 93 182 182 176 190 189 199 182 218 174 185 176 185 205 208 210 208 216 226 236 236 234 234 228 234 237 240 241 245 246 258 276 284 278 264
304 305 312 310 310 327 336 343 341 180 182 180 181 196 200 188 183 240 213 195 193 189 191 198 211 226 234 242 247 246 248 244 242 243 241 235 243 250 258 255 274 289 282 273
300 301 309 304 301 317 332 333 302 223 192 193 183 191 203 209 214 228 235 235 221 230 219 224 229 236 243 247 250 246 244 241 239 240 241 242 255 255 261 263 262 255 262 249
296 298 305 296 290 300 321 316 306 234 205 199 191 191 191 193 214 230 234 235 232 227 225 228 235 237 243 252 252 250 246 247 244 242 238 240 254 259 264 252 256 238 246 244
289 293 299 288 280 283 305 319 285 253 218 207 203 194 210 216 214 211 226 228 232 237 241 240 237 240 248 256 258 259 261 258 255 252 246 240 255 258 262 261 254 261 243 218
282 288 292 280 269 270 286 303 285 242 231 221 216 211 209 218 218 213 220 223 230 240 245 245 242 244 240 235 241 253 255 253 251 250 251 247 263 258 261 261 253 249 241 234
275 282 284 269 261 262 266 283 277 254 235 223 226 227 227 224 223 218 219 224 240 244 244 247 242 233 232 238 234 236 251 247 247 251 257 261 266 261 263 261 251 243 239 240
268 275 275 260 256 254 253 258 257 271 261 240 227 227 227 226 226 231 239 240 238 239 241 236 239 235 230 226 228 237 240 253 254 256 262 267 274 267 260 258 254 245 234 242
262 269 266 254 249 251 236 247 254 247 257 254 234 229 228 229 230 231 232 231 231 232 232 231 226 224 225 230 226 235 242 244 250 259 261 262 275 277 267 261 247 243 239 236
255 263 257 249 246 245 234 233 240 245 248 247 250 238 233 233 229 225 228 228 221 223 215 213 216 224 227 226 230 235 243 249 234 266 250 251 265 277 280 266 254 243 242 240
250 256 247 241 242 239 231 230 228 231 241 246 243 234 220 236 227 213 221 221 202 201 220 228 219 233 230 230 235 239 241 239 225 256 235 249 241 265 274 260 278 235 245 242
247 249 239 239 237 234 231 231 226 230 235 247 245 250 236 245 251 228 217 215 213 211 204 206 217 242 249 228 234 241 255 239 240 274 250 256 241 244 256 239 252 274 275 271
244 237 236 233 234 234 235 235 226 228 231 239 238 242 254 265 269 262 234 232 231 226 222 214 219 236 235 222 214 219 249 214 232 240 241 217 218 232 258 228 236 252 273 266
230 229 232 234 232 235 238 236 226 223 244 243 243 242 249 257 253 263 246 232 223 222 209 219 220 228 234 233 228 259 240 216 217 221 234 251 258 282 282 285 287 279 288 286
228 231 233 238 237 236 235 231 231 226 225 239 242 244 246 252 250 257 247 240 224 207 201 197 212 224 239 253 275 268 252 256 241 233 235 251 269 281 280 283 284 278 277 274
230 231 230 227 230 228 222 216 220 219 223 229 234 238 241 237 249 249 243 230 222 221 210 212 218 226 249 264 278 268 264 258 258 265 262 263 269 272 275 278 279 280 281 283
227 221 210 209 212 202 206 211 212 212 212 219 227 217 218 223 214 219 219 215 214 215 204 219 226 255 268 269 269 263 266 272 274 279 283 281 280 281 281 279 278 278 278 278
218 205 193 194 184 189 200 203 211 203 215 218 205 198 164 148 130 196 189 172 184 193 205 231 241 263 261 261 265 268 267 270 276 282 284 286 288 288 287 285 285 287 287 286
161 177 180 188 195 192 198 202 199 202 205 191 189 179 174 173 196 207 171 174 183 199 217 260 266 262 268 274 276 273 276 280 281 282 282 281 282 283 283 284 282 281 281 281
161 171 182 176 180 187 194 194 198 189 197 203 181 173 168 159 198 197 192 201 224 246 268 270 257 262 270 273 271 272 274 273 274 275 278 280 282 282 283 283 283 283 283 281
169 175 178 182 186 190 183 185 187 192 185 177 178 177 173 185 204 211 220 238 249 261 273 287 285 280 277 281 286 292 294 294 294 293 293 292 292 290 289 287 286 286 285 285
149 167 168 167 171 174 175 183 187 177 175 177 177 181 189 206 223 230 238 239 246 253 283 296 304 309 308 304 301 301 301 300 299 298 297 295 294 294 295 295 295 294 292 290
168 167 177 184 184 182 181 180 176 178 174 175 182 191 211 225 217 194 202 220 231 270 286 295 306 311 314 312 310 308 307 306 306 303 301 299 298 297 296 296 294 293 291 289